[[{"header":{"parameterUnit":"m.s-1","parameterCategory":1,"la1":30.2991,"la2":30.254,"lo1":-89.0895,"lo2":-89.0444,"dy":0.0017,"dx":0.0017,"nx":28,"ny":28,"refTime":"2025-08-08T21:00:00:Z","depth":0,"parameterNumber":2,"parameterNumberName":"U-component_of_WINDS"},"data":[0,0,0,0,0,0,0,0,0,0,0,0,0,0,0,0,0,0,0,0,0,0,0,0,0,0,0,0,0,0,0,0,0,0,0,0,0,0,0,0,0,0,0,0,0,0,0,0,0,0,0,0,0,0,0,0,0,0,-2.6567,-2.6567,0,-2.6547,-2.6547,-2.6547,-2.6392,-2.6388,-2.6384,-2.6381,-2.6365,-2.6368,-2.6371,0,0,0,0,0,0,0,0,0,0,0,0,0,-2.6476,-2.6478,-2.6567,-2.6567,-2.6567,-2.6547,-2.6547,-2.6546,-2.6393,-2.6388,-2.6383,-2.6379,-2.6364,-2.6368,-2.6372,0,0,0,0,0,0,0,0,0,0,0,0,0,-2.6492,-2.6479,-2.6567,-2.6487,-2.648,-2.6547,-2.6547,-2.6546,-2.6394,-2.6388,-2.6382,-2.6377,-2.6363,-2.6367,-2.6372,-2.6516,0,0,-2.6386,-2.6388,0,0,0,0,0,0,0,0,-2.6491,-2.6495,-2.6499,-2.6493,-2.6485,-2.6466,-2.6509,-2.6536,-2.6395,-2.6427,-2.6381,-2.6374,-2.6404,-2.6405,-2.6414,-2.6515,-2.6514,-2.6387,-2.639,-2.6392,-2.6393,0,0,0,0,0,0,0,-2.649,-2.6495,-2.6559,-2.65,-2.6491,-2.6454,-2.645,-2.6513,-2.6448,-2.6423,-2.6412,-2.6412,-2.6399,-2.6409,-2.6412,-2.6514,-2.6387,-2.6391,-2.6394,-2.6396,-2.6731,-2.6737,0,0,0,0,0,0,-2.65,-2.6496,-2.656,-2.6559,-2.6474,-2.646,-2.6455,-2.6478,-2.6446,-2.6436,-2.6417,-2.6405,-2.6404,-2.6407,-2.6411,-2.6576,-2.6392,-2.6396,-2.6399,-2.6725,-2.6733,-2.6739,0,0,0,0,0,0,-2.6498,-2.6507,-2.6561,-2.6524,-2.6528,-2.6468,-2.6494,-2.6481,-2.6491,-2.6441,-2.6429,-2.6439,-2.64,-2.6404,-2.649,-2.6574,-2.6398,-2.6403,-2.6718,-2.6728,-2.6736,-2.6909,0,0,0,0,0,0,-2.6496,-2.6507,-2.6561,-2.6526,-2.653,-2.664,-2.6499,-2.6484,-2.6499,-2.6483,-2.6459,-2.645,-2.6396,-2.6484,-2.6495,-2.6577,-2.6406,-2.671,-2.6722,-2.6733,-2.6896,-2.6923,-2.6946,0,0,0,0,0,-2.6494,-2.6611,-2.6564,-2.6573,-2.6595,-2.6645,-2.6647,-2.6581,-2.6506,-2.656,-2.6528,-2.6451,-2.6563,-2.6494,-2.6505,-2.659,-2.6705,-2.6719,-2.6732,-2.6884,-2.6918,-2.6946,0,0,0,0,0,0,-2.6659,-2.6605,-2.6552,-2.6662,-2.6659,-2.6619,-2.6684,-2.6618,-2.6638,-2.6622,-2.654,-2.6536,-2.6635,-2.6621,-2.6545,-2.6727,-2.662,-2.6637,-2.6732,-2.6764,-2.6789,-2.679,-2.641,0,0,0,0,0,-2.6708,-2.6751,-2.6702,-2.6804,-2.6805,-2.6745,-2.6764,-2.6713,-2.6707,-2.6706,-2.6679,-2.6678,-2.6712,-2.6737,-2.6766,-2.6893,-2.6885,-2.6956,-2.6982,-2.7003,-2.7018,-2.7084,-2.7115,-2.6784,-2.6784,-2.6784,0,0,-2.681,-2.6786,-2.6819,-2.6837,-2.6828,-2.6876,-2.6745,-2.6801,-2.6836,-2.6714,-2.6793,-2.6775,-2.6767,-2.6874,-2.692,-2.6865,-2.7108,-2.702,-2.7037,-2.7041,-2.7101,-2.7132,-2.716,-2.6794,-2.6792,-2.679,0,0,-2.702,-2.7006,-2.7089,-2.7082,-2.707,-2.703,-2.705,-2.7019,-2.7001,-2.7079,-2.6989,-2.703,-2.7091,-2.7089,-2.7097,-2.7305,-2.7236,-2.7317,-2.745,-2.7515,-2.7541,-2.7564,-2.7638,-2.7666,-2.7333,-2.7333,-2.7334,0,-2.7149,-2.7215,-2.714,-2.7201,-2.7212,-2.7102,-2.7186,-2.7184,-2.7184,-2.7194,-2.7133,-2.7207,-2.7194,-2.7299,-2.735,-2.7359,-2.738,-2.732,-2.7543,-2.7565,-2.7585,-2.7655,-2.7684,-2.7343,-2.7342,-2.7341,-2.734,0,-2.7374,-2.7422,-2.749,-2.749,-2.7508,-2.7581,-2.7518,-2.7546,-2.7493,-2.7459,-2.754,-2.7521,-2.7544,-2.7565,-2.7515,-2.7663,-2.7629,-2.7557,-2.7449,-2.7628,-2.7692,-2.7719,-2.7358,-2.7354,-2.7351,-2.7349,0,0,-2.7688,-2.7644,-2.7671,-2.7669,-2.7648,-2.7684,-2.7752,-2.7772,-2.7798,-2.7801,-2.7856,-2.791,-2.7843,-2.7851,-2.78,-2.7857,-2.8024,-2.7777,-2.7776,-2.7824,-2.8185,-2.824,-2.8272,-2.7977,-2.7982,-2.7986,-2.8186,0,-2.7889,-2.8001,-2.7935,-2.8057,-2.81,-2.7996,-2.8055,-2.8049,-2.802,-2.8053,-2.802,-2.806,-2.7968,-2.7972,-2.8024,-2.7993,-2.8095,-2.7977,-2.8029,-2.8031,-2.8034,-2.8306,-2.8364,-2.8554,-2.8211,-2.8215,-2.8218,0,-2.8139,-2.8151,-2.8277,-2.8246,-2.8262,-2.8316,-2.833,-2.8363,-2.8354,-2.8328,-2.8338,-2.8272,-2.8338,-2.823,-2.832,-2.8241,-2.8258,-2.8246,-2.8252,-2.8254,-2.8136,-2.8316,-2.8613,-2.8642,-2.8257,-2.8254,-2.8251,0,-2.8356,-2.8403,-2.8484,-2.8486,-2.8453,-2.8493,-2.8481,-2.8467,-2.8483,-2.8496,-2.8506,-2.8527,-2.8538,-2.8556,-2.8499,-2.8426,-2.8596,-2.8484,-2.8577,-2.8579,-2.8618,-2.8617,-2.8922,-2.863,-2.8629,-2.8629,-2.8628,0,-2.8587,-2.8668,-2.8581,-2.8631,-2.8719,-2.8643,-2.8732,-2.8709,-2.8697,-2.8742,-2.8654,-2.8699,-2.8619,-2.8656,-2.8612,-2.8693,-2.8699,-2.8681,-2.8668,-2.8688,-2.8691,-2.8699,-2.8684,-2.8636,-2.8635,-2.8633,-2.8632,0,-2.8844,-2.8788,-2.887,-2.8831,-2.8823,-2.8889,-2.8856,-2.8902,-2.8865,-2.8923,-2.8933,-2.8877,-2.8915,-2.8859,-2.8892,-2.8862,-2.8974,-2.8941,-2.8976,-2.8967,-2.9063,-2.9055,-2.9385,-2.9424,-2.9107,-2.911,-2.9113,0,-2.8995,-2.9055,-2.9022,-2.9044,-2.9037,-2.9075,-2.9091,-2.9018,-2.9039,-2.9033,-2.908,-2.911,-2.9131,-2.9197,-2.9161,-2.9186,-2.9153,-2.9267,-2.9156,-2.9175,-2.9154,-2.9152,-2.9157,-2.929,-2.9293,-2.9296,-2.9299,0,-2.927,-2.9239,-2.9264,-2.9281,-2.9301,-2.9311,-2.9315,-2.9339,-2.9263,-2.929,-2.9327,-2.9343,-2.9376,-2.9408,-2.9423,-2.9412,-2.9344,-2.9334,-2.9357,-2.9379,-2.9397,-2.9388,-2.9038,-2.9327,-2.9324,-2.9322,-2.9321,-2.9319,-2.9478,-2.9525,-2.9509,-2.9541,-2.9535,-2.954,-2.9581,-2.9549,-2.9578,-2.9598,-2.9554,-2.9602,-2.9592,-2.9605,-2.9602,-2.9639,-2.959,-2.9623,-2.9631,-2.9641,-2.9656,-2.9391,-2.9642,-2.9641,-2.964,-2.9639,-2.9639,0,-2.9747,-2.9731,-2.9761,-2.9767,-2.9793,-2.9724,-2.9724,-2.975,-2.9793,-2.9788,-2.981,-2.9853,-2.9883,-2.9849,-2.9873,-2.991,-2.9879,-2.9919,-2.9916,-2.9914,-2.9699,-2.9676,-2.9943,-2.9943,-2.9943,-2.9943,-2.9943,-2.9943,-2.9891,-2.9968,-2.9935,-3.0009,-2.9993,-3.0038,-3.0044,-3.0049,-3.0045,-3.0096,-3.012,-3.0097,-3.0081,-3.0103,-3.0128,-3.0117,-3.013,-3.0181,-3.016,-2.9959,-2.9929,-2.9901,-2.9879,-3.0185,-3.0185,-3.0372,-3.0374,-3.0375]},{"header":{"parameterUnit":"m.s-1","parameterCategory":1,"la1":30.2991,"la2":30.254,"lo1":-89.0895,"lo2":-89.0444,"dy":0.0017,"dx":0.0017,"nx":28,"ny":28,"refTime":"2025-08-08T21:00:00:Z","depth":0,"parameterNumber":3,"parameterNumberName":"V-component_of_WINDS"},"data":[0,0,0,0,0,0,0,0,0,0,0,0,0,0,0,0,0,0,0,0,0,0,0,0,0,0,0,0,0,0,0,0,0,0,0,0,0,0,0,0,0,0,0,0,0,0,0,0,0,0,0,0,0,0,0,0,0,0,-2.8466,-2.8467,0,-2.8476,-2.8476,-2.8476,-2.8405,-2.8403,-2.8401,-2.8399,-2.8408,-2.841,-2.8412,0,0,0,0,0,0,0,0,0,0,0,0,0,-2.8386,-2.8387,-2.8466,-2.8467,-2.8467,-2.8476,-2.8476,-2.8476,-2.8405,-2.8403,-2.84,-2.8398,-2.8407,-2.8409,-2.8412,0,0,0,0,0,0,0,0,0,0,0,0,0,-2.841,-2.8388,-2.8466,-2.8432,-2.8429,-2.8476,-2.8476,-2.8476,-2.8406,-2.8403,-2.84,-2.8397,-2.8406,-2.8409,-2.8412,-2.8492,0,0,-2.8422,-2.8423,0,0,0,0,0,0,0,0,-2.8409,-2.8413,-2.8437,-2.8435,-2.8432,-2.8436,-2.8451,-2.8481,-2.8406,-2.8415,-2.8399,-2.8395,-2.842,-2.8421,-2.843,-2.8492,-2.8492,-2.8422,-2.8424,-2.8425,-2.8426,0,0,0,0,0,0,0,-2.8407,-2.8413,-2.847,-2.8438,-2.8434,-2.8416,-2.8416,-2.8456,-2.8434,-2.8414,-2.8408,-2.8411,-2.8417,-2.8427,-2.8429,-2.8493,-2.8422,-2.8425,-2.8427,-2.8428,-2.8619,-2.8623,0,0,0,0,0,0,-2.841,-2.8412,-2.847,-2.847,-2.8413,-2.842,-2.842,-2.8438,-2.8433,-2.8429,-2.8413,-2.8407,-2.8423,-2.8426,-2.8429,-2.8521,-2.8425,-2.8428,-2.843,-2.8616,-2.862,-2.8624,0,0,0,0,0,0,-2.8409,-2.8416,-2.8469,-2.844,-2.8445,-2.8425,-2.8445,-2.8439,-2.8449,-2.8433,-2.8428,-2.8427,-2.8421,-2.8425,-2.8477,-2.8521,-2.843,-2.8433,-2.8613,-2.8618,-2.8622,-2.8707,0,0,0,0,0,0,-2.8407,-2.8416,-2.8447,-2.8441,-2.8447,-2.8517,-2.8447,-2.8442,-2.8454,-2.8447,-2.8445,-2.8441,-2.8419,-2.8472,-2.848,-2.8523,-2.8435,-2.8608,-2.8615,-2.862,-2.87,-2.8714,-2.8726,0,0,0,0,0,-2.8404,-2.847,-2.8449,-2.8456,-2.8484,-2.852,-2.8523,-2.8496,-2.8458,-2.8488,-2.8478,-2.8441,-2.8515,-2.8478,-2.8486,-2.8531,-2.8606,-2.8613,-2.862,-2.8694,-2.8711,-2.8726,0,0,0,0,0,0,-2.8481,-2.8469,-2.8445,-2.8511,-2.8517,-2.8508,-2.8545,-2.8515,-2.8532,-2.8524,-2.8489,-2.8489,-2.8547,-2.8544,-2.8503,-2.8607,-2.8553,-2.8563,-2.8607,-2.8623,-2.8636,-2.8635,-2.8438,0,0,0,0,0,-2.8506,-2.8536,-2.8523,-2.8583,-2.8587,-2.8566,-2.858,-2.8559,-2.8564,-2.8566,-2.8559,-2.8565,-2.8589,-2.8606,-2.8627,-2.8699,-2.8697,-2.8734,-2.8747,-2.8758,-2.8766,-2.8803,-2.8819,-2.8647,-2.8647,-2.8647,0,0,-2.8558,-2.8554,-2.8575,-2.8598,-2.86,-2.8632,-2.8568,-2.8605,-2.8628,-2.8571,-2.8619,-2.8615,-2.8619,-2.8681,-2.8708,-2.868,-2.8813,-2.8767,-2.8776,-2.8778,-2.8812,-2.8828,-2.8843,-2.8652,-2.8651,-2.8651,0,0,-2.8667,-2.8668,-2.8717,-2.8721,-2.8725,-2.871,-2.8722,-2.8717,-2.8712,-2.876,-2.8718,-2.8745,-2.8787,-2.8792,-2.88,-2.8911,-2.8878,-2.8919,-2.8986,-2.9023,-2.9037,-2.9048,-2.9088,-2.9102,-2.8927,-2.8927,-2.8927,0,-2.873,-2.8777,-2.8746,-2.8785,-2.8796,-2.8747,-2.8796,-2.8801,-2.8812,-2.882,-2.879,-2.8842,-2.8841,-2.8903,-2.893,-2.8938,-2.895,-2.8919,-2.9037,-2.9049,-2.9059,-2.9096,-2.9111,-2.8932,-2.8932,-2.8931,-2.8931,0,-2.8854,-2.8887,-2.8926,-2.8938,-2.8953,-2.8997,-2.8973,-2.8992,-2.8969,-2.8957,-2.9007,-2.9004,-2.9024,-2.9037,-2.9015,-2.9096,-2.9079,-2.9043,-2.8988,-2.9081,-2.9115,-2.9129,-2.8939,-2.8937,-2.8936,-2.8935,0,0,-2.9013,-2.9007,-2.9022,-2.9027,-2.9027,-2.9052,-2.9093,-2.9113,-2.913,-2.9139,-2.9173,-2.921,-2.9176,-2.9186,-2.9163,-2.9196,-2.9283,-2.9156,-2.9155,-2.918,-2.9372,-2.9399,-2.9416,-2.9261,-2.9264,-2.9266,-2.9371,0,-2.912,-2.919,-2.9164,-2.9237,-2.9266,-2.9219,-2.9255,-2.9259,-2.9249,-2.9272,-2.9261,-2.9288,-2.9242,-2.9247,-2.9277,-2.9266,-2.9321,-2.9258,-2.9292,-2.9293,-2.9292,-2.9434,-2.9462,-2.9562,-2.9385,-2.9387,-2.9389,0,-2.9254,-2.9268,-2.9344,-2.9339,-2.9351,-2.9384,-2.9399,-2.9422,-2.9425,-2.9416,-2.9426,-2.9396,-2.9436,-2.9381,-2.9435,-2.9393,-2.9405,-2.9402,-2.9405,-2.9407,-2.9347,-2.9439,-2.9593,-2.9608,-2.9409,-2.9408,-2.9406,0,-2.9362,-2.94,-2.945,-2.9456,-2.9452,-2.9476,-2.9475,-2.9475,-2.9489,-2.9502,-2.951,-2.9528,-2.9538,-2.9552,-2.9528,-2.9491,-2.9586,-2.9529,-2.9579,-2.958,-2.9601,-2.96,-2.9759,-2.9609,-2.9609,-2.9609,-2.9608,0,-2.9484,-2.9532,-2.9499,-2.953,-2.9582,-2.9551,-2.9603,-2.9597,-2.9598,-2.9626,-2.9587,-2.9614,-2.9581,-2.9605,-2.9587,-2.9634,-2.9639,-2.9632,-2.9626,-2.9635,-2.9636,-2.9643,-2.9635,-2.9613,-2.9612,-2.9611,-2.961,0,-2.9614,-2.9593,-2.9645,-2.9636,-2.9635,-2.9674,-2.9667,-2.9695,-2.9682,-2.9718,-2.9725,-2.9705,-2.9731,-2.9708,-2.9734,-2.9721,-2.9784,-2.9769,-2.9783,-2.9779,-2.983,-2.9825,-2.9999,-3.0019,-2.9857,-2.9858,-2.9859,0,-2.9693,-2.9729,-2.9724,-2.974,-2.9742,-2.9769,-2.9782,-2.9753,-2.9768,-2.9774,-2.9801,-2.9824,-2.9841,-2.9886,-2.9873,-2.9892,-2.9877,-2.9936,-2.9879,-2.9887,-2.9877,-2.9876,-2.9879,-2.9948,-2.995,-2.9951,-2.9952,0,-2.9835,-2.9823,-2.9844,-2.9862,-2.9879,-2.9891,-2.99,-2.9915,-2.9885,-2.9904,-2.9931,-2.9944,-2.997,-2.9993,-3.0008,-3.0007,-2.9975,-2.997,-2.9983,-2.9992,-2.9999,-2.9996,-2.9815,-2.9966,-2.9965,-2.9964,-2.9963,-2.9963,-2.9942,-2.9971,-2.9973,-2.9997,-3.0001,-3.001,-3.0036,-3.0026,-3.0047,-3.0066,-3.0047,-3.008,-3.0081,-3.0098,-3.0101,-3.0125,-3.01,-3.0118,-3.0123,-3.0128,-3.0135,-2.9996,-3.0128,-3.0127,-3.0127,-3.0127,-3.0126,0,-3.0082,-3.008,-3.0103,-3.0117,-3.0136,-3.0104,-3.0112,-3.013,-3.0159,-3.0164,-3.0181,-3.0211,-3.0234,-3.0223,-3.0242,-3.0264,-3.0249,-3.027,-3.0268,-3.0268,-3.0156,-3.0144,-3.0281,-3.0281,-3.0281,-3.0281,-3.0281,-3.0281,-3.0157,-3.0205,-3.0194,-3.0243,-3.024,-3.0272,-3.0279,-3.0287,-3.0291,-3.0326,-3.0345,-3.0337,-3.0336,-3.0354,-3.0373,-3.0369,-3.0378,-3.0404,-3.0395,-3.0291,-3.0276,-3.0261,-3.0249,-3.0406,-3.0406,-3.0504,-3.0505,-3.0506]}]]